This demonstration page uses our WeatherBlox Daily Observations layout. Learn more.

Left ArrowRight Arrow

40.92945, -100.16068

Hourly Observations for February 29, 2016

Temp ( °F °C ) Dew Point ( °F °C ) Humidity (%) Winds ( mph kmh ) Pressure ( in mb ) Visibility ( mi km ) Precip ( " mm )
12:15 am 00:15 Clear 41 4.8 24 -4.5 51 51 S 10 17 29.97 1015 10 16.0934 N/A
12:35 am 00:35 Clear 40 4.7 23 -4.9 50 50 SSE 6 9 29.97 1015 10 16.0934 N/A
12:55 am 00:55 Clear 41 5 24 -4.5 51 51 S 3 6 30 1016 10 16.0934 N/A
1:15 am 01:15 Clear 39 3.7 24 -4.6 55 55 S 6 9 30 1016 10 16.0934 N/A
1:35 am 01:35 Clear 40 4.3 24 -4.4 54 54 SSW 8 13 30 1016 10 16.0934 N/A
1:55 am 01:55 Clear 41 5 26 -3.6 54 54 SSW 7 11 29.97 1015 10 16.0934 N/A
2:15 am 02:15 Clear 40 4.7 25 -4.1 53 53 N N/A 29.97 1015 10 16.0934 N/A
2:35 am 02:35 Clear 39 4 24 -4.4 55 55 SSW 3 6 29.97 1015 10 16.0934 N/A
2:55 am 02:55 Clear 39 3.7 24 -4.5 55 55 N N/A 29.97 1015 10 16.0934 N/A
3:15 am 03:15 Clear 36 2.3 24 -4.5 61 61 WNW 5 7 29.97 1015 10 16.0934 N/A
3:35 am 03:35 Clear 38 3.4 24 -4.4 57 57 SW 10 17 29.94 1014 10 16.0934 N/A
3:55 am 03:55 Clear 41 5.2 24 -4.3 51 51 SW 12 19 29.94 1014 10 16.0934 N/A
4:15 am 04:15 Clear 42 5.6 24 -4.7 48 48 SW 14 22 29.88 1012 10 16.0934 N/A
4:35 am 04:35 Clear 43 6.1 24 -4.5 47 47 SW 12 19 29.88 1012 10 16.0934 N/A
4:55 am 04:55 Clear 41 4.9 24 -4.2 52 52 W 10 17 29.94 1014 10 16.0934 N/A
5:15 am 05:15 Clear 43 6.1 24 -4.5 47 47 WSW 9 15 29.88 1012 10 16.0934 N/A
5:35 am 05:35 Clear 42 5.3 24 -4.5 50 50 SW 9 15 29.91 1013 10 16.0934 N/A
5:55 am 05:55 Clear 40 4.6 24 -4.6 52 52 SW 7 11 29.91 1013 10 16.0934 N/A
6:15 am 06:15 Clear 40 4.3 24 -4.6 53 53 WSW 7 11 29.91 1013 10 16.0934 N/A
6:35 am 06:35 Clear 40 4.5 24 -4.6 52 52 N N/A 29.88 1012 10 16.0934 N/A
6:55 am 06:55 Clear 39 3.9 24 -4.6 54 54 WSW 7 11 29.88 1012 10 16.0934 N/A
7:15 am 07:15 Sunny 37 3 25 -4 60 60 W 8 13 29.88 1012 10 16.0934 N/A
7:35 am 07:35 Sunny 36 2.4 25 -3.9 63 63 W 8 13 29.88 1012 10 16.0934 N/A
7:55 am 07:55 Sunny 36 2 26 -3.6 67 67 W 6 9 29.88 1012 10 16.0934 N/A
8:15 am 08:15 Sunny 41 5.2 28 -2.2 59 59 W 6 9 29.88 1012 10 16.0934 N/A
8:35 am 08:35 Sunny 44 6.5 27 -2.8 52 52 W 8 13 29.85 1011 10 16.0934 N/A
8:55 am 08:55 Sunny 44 6.5 28 -2.4 53 53 WNW 8 13 29.85 1011 10 16.0934 N/A
9:15 am 09:15 Sunny 45 7 27 -2.8 50 50 WNW 8 13 29.85 1011 10 16.0934 N/A
9:35 am 09:35 Sunny 46 7.7 27 -2.9 47 47 NW 14 22 29.85 1011 10 16.0934 N/A
9:55 am 09:55 Sunny 46 8 27 -3 46 46 NW 10 17 29.85 1011 10 16.0934 N/A
10:15 am 10:15 Sunny 47 8.6 28 -2.5 46 46 NW 10 17 29.83 1010 10 16.0934 N/A
10:35 am 10:35 Sunny 48 8.9 29 -1.9 47 47 NW 10 17 29.83 1010 10 16.0934 N/A
10:55 am 10:55 Sunny 51 10.5 28 -2 42 42 NNW 7 11 29.83 1010 10 16.0934 N/A
11:15 am 11:15 Sunny 53 11.6 29 -1.6 40 40 NNW 6 9 29.8 1009 10 16.0934 N/A
11:35 am 11:35 Sunny 56 13.2 27 -2.9 33 33 NNE 10 17 29.8 1009 10 16.0934 N/A
11:55 am 11:55 Sunny 57 14 27 -2.9 31 31 NE 8 13 29.8 1009 10 16.0934 N/A
12:15 pm 12:15 Sunny 58 14.5 27 -2.8 30 30 NE 7 11 29.77 1008 10 16.0934 N/A
12:35 pm 12:35 Sunny 59 14.9 27 -2.6 30 30 NNE 9 15 29.77 1008 10 16.0934 N/A
12:55 pm 12:55 Sunny 58 14.6 28 -2.2 32 32 N 8 13 29.77 1008 10 16.0934 N/A
1:15 pm 13:15 Sunny 58 14.6 28 -2 32 32 NNE 9 15 29.74 1007 10 16.0934 N/A
1:35 pm 13:35 Sunny 58 14.6 28 -2.2 32 32 NNE 12 19 29.74 1007 10 16.0934 N/A
1:55 pm 13:55 Sunny 58 14.3 28 -2.4 32 32 NNE 8 13 29.77 1008 10 16.0934 N/A
2:15 pm 14:15 Sunny 58 14.6 28 -2 32 32 ENE 10 17 29.74 1007 10 16.0934 N/A
2:35 pm 14:35 Sunny 57 14 28 -2.4 32 32 ENE 8 13 29.77 1008 10 16.0934 N/A
2:55 pm 14:55 Sunny 58 14.2 28 -2 33 33 ENE 9 15 29.77 1008 10 16.0934 N/A
3:15 pm 15:15 Sunny 57 14 29 -1.9 34 34 ENE 8 13 29.77 1008 10 16.0934 N/A
3:35 pm 15:35 Sunny 56 13.6 29 -1.5 35 35 ENE 10 17 29.77 1008 10 16.0934 N/A
3:55 pm 15:55 Sunny 55 12.8 30 -1.3 38 38 E 12 19 29.77 1008 10 16.0934 N/A
4:15 pm 16:15 Sunny 56 13.6 30 -1.2 36 36 ENE 12 19 29.74 1007 10 16.0934 N/A
4:35 pm 16:35 Sunny 55 12.7 29 -1.7 37 37 ENE 14 22 29.74 1007 10 16.0934 N/A
4:55 pm 16:55 Sunny 53 11.6 30 -1.1 42 42 ENE 15 24 29.77 1008 10 16.0934 N/A
5:15 pm 17:15 Sunny 50 9.9 30 -1 47 47 E 14 22 29.8 1009 10 16.0934 N/A
5:35 pm 17:35 Sunny 48 9 30 -1.2 49 49 E 12 19 29.77 1008 10 16.0934 N/A
6:15 pm 18:15 Partly Cloudy 45 7.1 30 -1.1 56 56 NE 9 15 29.85 1011 10 16.0934 N/A
6:35 pm 18:35 Clear 43 6.2 30 -1.3 59 59 NNE 15 24 29.91 1013 10 16.0934 N/A
6:55 pm 18:55 Partly Cloudy 42 5.3 28 -2 60 60 NNE 18 30 29.97 1015 10 16.0934 N/A
7:15 pm 19:15 Mostly Cloudy 40 4.6 28 -2.4 61 61 NNE 20 31 29.97 1015 10 16.0934 N/A
7:35 pm 19:35 Cloudy 38 3.2 26 -3.3 63 63 N 22 35 30.09 1019 10 16.0934 N/A
7:55 pm 19:55 Cloudy with Light Snow 37 2.5 26 -3.4 65 65 N 18 30 30.09 1019 10 16.0934 N/A
8:15 pm 20:15 Cloudy 35 1.7 27 -2.8 72 72 N 12 19 30.09 1019 10 16.0934 N/A
8:35 pm 20:35 Cloudy 33 0.5 28 -2.5 81 81 NE 9 15 30.06 1018 10 16.0934 N/A
8:55 pm 20:55 Partly Cloudy 32 0.1 28 -2.5 83 83 NNE 7 11 30.09 1019 10 16.0934 N/A
9:15 pm 21:15 Partly Cloudy 31 -0.5 27 -3 83 83 N 5 7 30.09 1019 10 16.0934 N/A
9:35 pm 21:35 Partly Cloudy 29 -1.5 25 -3.8 85 85 NE 3 6 30.09 1019 10 16.0934 N/A
9:55 pm 21:55 Clear 28 -2.1 25 -4.1 86 86 NW 7 11 30.12 1020 10 16.0934 N/A
10:15 pm 22:15 Clear 28 -2.5 24 -4.2 88 88 N 5 7 30.12 1020 10 16.0934 N/A
10:35 pm 22:35 Clear 27 -2.8 24 -4.7 87 87 NNW 6 9 30.18 1022 10 16.0934 N/A
10:55 pm 22:55 Clear 26 -3.5 22 -5.3 88 88 N 6 9 30.18 1022 10 16.0934 N/A
11:15 pm 23:15 Clear 26 -3.5 22 -5.3 88 88 N 8 13 30.18 1022 10 16.0934 N/A
11:35 pm 23:35 Clear 26 -3.5 22 -5.3 88 88 N 7 11 30.18 1022 10 16.0934 N/A
11:55 pm 23:55 Partly Cloudy 25 -3.8 22 -5.6 87 87 N 7 11 30.18 1022 10 16.0934 N/A

Powered by AerisWeather